Regional Weather Roundup
Issued by NWS Boston, MA

Home | Current Version | Previous Version | Text Only | Print | Product List | Glossary On
Versions: 1 2 3 4 5 6 7 8 9 10 11 12 13 14 15 16 17 18 19 20 21 22 23 24 25 26 27 28 29 30 31 32 33 34 35 36 37 38 39 40 41 42 43 44 45 46 47 48 49 50
000
ASUS41 KBOX 010510
RWRBOX

REGIONAL WEATHER ROUNDUP
NATIONAL WEATHER SERVICE TAUNTON MA
100 AM EDT WED JUL 01 2015

NOTE:  "FAIR" INDICATES FEW OR NO CLOUDS BELOW 12,000 FEET WITH NO
SIGNIFICANT WEATHER AND/OR OBSTRUCTIONS TO VISIBILITY.  THE FOLLOWING
OBSERVATION LOCATIONS DO NOT REPORT PRESENT WEATHER...PROVINCETOWN...
SMITHFIELD...BLOCK ISLAND...KEENE...AND OXFORD.

MAZALL-010600-
EASTERN MASSACHUSETTS

CITY           SKY/WX    TMP DP  RH WIND       PRES   REMARKS
BOSTON         NOT AVBL
BEVERLY        NOT AVBL
LAWRENCE       NOT AVBL
BEDFORD        MOCLDY    66  60  81 S8        29.93F
BLUE HILL        N/A     64  61  90 S13       29.94F
NORWOOD        NOT AVBL
MARSHFIELD     MOCLDY    66  64  94 S7        29.96F
PLYMOUTH       NOT AVBL
TAUNTON        NOT AVBL
NEW BEDFORD    NOT AVBL
$$

MAZALL-010600-
CAPE COD AND THE ISLANDS

CITY           SKY/WX    TMP DP  RH WIND       PRES   REMARKS
FALMOUTH       PTCLDY    64  63  94 SE5       29.96F
HYANNIS        PTCLDY    64  61  90 CALM      29.95F
CHATHAM        NOT AVBL
NANTUCKET      NOT AVBL
MARTHAS VNYRD  NOT AVBL
$$

MAZALL-010600-
CENTRAL AND WESTERN MASSACHUSETTS

CITY           SKY/WX    TMP DP  RH WIND       PRES   REMARKS
WORCESTER      NOT AVBL
FITCHBURG      NOT AVBL
ORANGE         NOT AVBL
SPRINGFIELD    DRIZZLE   66  61  82 CALM      29.89F
WESTFIELD      NOT AVBL
NORTH ADAMS    NOT AVBL
$$

RIZALL-010600-
RHODE ISLAND

CITY           SKY/WX    TMP DP  RH WIND       PRES   REMARKS
PROVIDENCE     NOT AVBL
NEWPORT        NOT AVBL
WESTERLY       NOT AVBL
$$

CTZALL-010600-
CONNECTICUT

CITY           SKY/WX    TMP DP  RH WIND       PRES   REMARKS
BRADLEY INTL   NOT AVBL
HARTFORD       NOT AVBL
BRIDGEPORT     LGT RAIN  72  68  87 E8        29.86F
GROTON         MOCLDY    68  64  87 SE7       29.91F
NEW HAVEN      NOT AVBL
CHESTER        NOT AVBL
MERIDEN        NOT AVBL
WILLIMANTIC    NOT AVBL
$$

MEZ002-015-021-024-NHZ003-005-008-011-012-014-VTZ005-008-010600-
NORTHERN NEW ENGLAND

CITY           SKY/WX    TMP DP  RH WIND       PRES   REMARKS
PORTLAND ME    NOT AVBL
BANGOR ME      NOT AVBL
CONCORD NH     NOT AVBL
MANCHESTER NH  NOT AVBL
NASHUA NH      NOT AVBL
PORTSMOUTH NH  MOCLDY    61  58  89 CALM      29.93F
JAFFREY NH     NOT AVBL
KEENE NH       NOT AVBL
BURLINGTON VT  NOT AVBL
MT. WASHINGTON LGT RAIN  48  48 100 S33G43      N/A  VSB 0
$$

NYZ052-076-010600-
EASTERN NEW YORK

CITY           SKY/WX    TMP DP  RH WIND       PRES   REMARKS
ALBANY         NOT AVBL
NEW YORK CITY  NOT AVBL
$$

ANZALL-010600-
MARINE OBSERVATIONS

STATION/POSITION TIME  TEMP    WIND        PRES    VSBY  WAVE
                       AIR SEA DIR/SP/G                  HT/PER
                 (UTC) (F)     (DEG/KT/KT) (MB)    (MI)  (FT/S)
BOSTON BUOY      0450   62 60  160/  6/  8 1014.3F         2/ 9
BUZZARDS BAY     0400          140/ 13/ 14 1014.9F
NANTUCKET SOUND  0450   66 67  140/ 10/ 12 1014.1F         1/ 8
MASS BAY-STELLWA 0404   61 58  180/  6/  6 1013.6F  1 7/8  3/ 8
ISLE OF SHOALS   0500   65     190/  9/ 10 1013.6F
S OF BLOCK IS    0408      66                N/A           3/ 8
$$

......................KEY.........................
  SKY/WX - SKY CONDITION/PRESENT WEATHER
  TMP    - TEMPERATURE IN FAHRENHEIT
  DWPT   - DEWPOINT IN FAHRENHEIT
  RH     - RELATIVE HUMIDITY IN PERCENT
  WIND   - DIRECTION AND SPEED IN MPH
  PRES   - MEAN SEA LEVEL PRESSURE IN INCHES OF HG
  WCI    - WIND CHILL INDEX
  VSB    - VISIBILITY IN MILES
  HX     - HEAT INDEX
  TC     - TEMPERATURE IN CELSIUS
  VRB    - VARIABLE WIND DIRECTION
  N/A    - NOT AVAILABLE


USA.gov is the U.S. government's official web portal to all federal, state and local government web resources and services.